^^
Saratoga-Weather Station Historical Data
Daily Summary for March 13, 2021 Units:  English    Metric   Both
Daily Weekly Monthly Yearly Custom
  High: Low: Average:
Temperature: 23.5 °F 21.9 °F 22.6 °F
Dew Point: 15.4 °F 13.6 °F 14.7 °F
Humidity: 72% 70% 71%
Wind Speed: 11mph 2mph 4.5mph
Wind Gust: 12mph - -
Wind- - East
Pressure: 30.5 in 30.5 in -
Precipitation: 0 in    
Historical Graphs
 
 
Tabular Data for March 13, 2021
Time Temperature Dew Point Pressure Wind Wind Speed Wind Gust Humidity Rainfall Rate (Hourly) solar
00:02 23.5 °F 15.3 °F 30.5 in ESE 4 mph 11 mph 70% 0 in 0 W/m2
00:07 23.4 °F 15.1 °F 30.5 in ESE 4 mph 7 mph 70% 0 in 0 W/m2
00:12 23.4 °F 15.4 °F 30.5 in ESE 2.9 mph 7 mph 71% 0 in 0 W/m2
00:17 23.4 °F 15.4 °F 30.5 in ESE 2 mph 8 mph 71% 0 in 0 W/m2
00:22 23.2 °F 15.3 °F 30.5 in ENE 8.1 mph 10 mph 71% 0 in 0 W/m2
00:27 23.2 °F 15.3 °F 30.5 in NE 4.9 mph 10 mph 71% 0 in 0 W/m2
00:32 23.2 °F 15.3 °F 30.5 in SE 4.9 mph 9 mph 71% 0 in 0 W/m2
00:38 23 °F 15.1 °F 30.5 in East 6 mph 11 mph 71% 0 in 0 W/m2
00:43 23 °F 15.1 °F 30.5 in East 6 mph 6 mph 71% 0 in 0 W/m2
00:48 22.8 °F 14.9 °F 30.5 in SSE 4.9 mph 5 mph 71% 0 in 0 W/m2
00:53 22.6 °F 14.7 °F 30.5 in ESE 2.9 mph 3 mph 71% 0 in 0 W/m2
00:58 22.6 °F 14.7 °F 30.5 in ESE 4 mph 12 mph 71% 0 in 0 W/m2
01:03 22.6 °F 14.7 °F 30.5 in ENE 6 mph 10 mph 71% 0 in 0 W/m2
01:08 22.6 °F 14.9 °F 30.5 in East 4 mph 10 mph 72% 0 in 0 W/m2
01:13 22.5 °F 14.5 °F 30.5 in NE 2.9 mph 11 mph 71% 0 in 0 W/m2
01:18 22.5 °F 14.5 °F 30.5 in ENE 2.9 mph 9 mph 71% 0 in 0 W/m2
01:23 22.5 °F 14.5 °F 30.5 in SE 2 mph 11 mph 71% 0 in 0 W/m2
01:28 22.5 °F 14.5 °F 30.5 in SE 11 mph 11 mph 71% 0 in 0 W/m2
01:33 22.5 °F 14.5 °F 30.5 in ESE 4 mph 7 mph 71% 0 in 0 W/m2
01:38 22.3 °F 14.4 °F 30.5 in East 4 mph 12 mph 71% 0 in 0 W/m2
01:43 22.3 °F 14.4 °F 30.5 in NE 4.9 mph 11 mph 71% 0 in 0 W/m2
01:48 22.3 °F 14.4 °F 30.5 in ENE 2.9 mph 9 mph 71% 0 in 0 W/m2
01:53 22.3 °F 14.4 °F 30.5 in East 6 mph 9 mph 71% 0 in 0 W/m2
01:58 22.3 °F 14 °F 30.5 in ENE 2.9 mph 8 mph 70% 0 in 0 W/m2
02:03 22.3 °F 14 °F 30.5 in ENE 4.9 mph 8 mph 70% 0 in 0 W/m2
02:08 22.3 °F 14 °F 30.5 in ESE 2.9 mph 8 mph 70% 0 in 0 W/m2
02:13 22.1 °F 13.8 °F 30.5 in NE 6 mph 9 mph 70% 0 in 0 W/m2
02:18 21.9 °F 13.6 °F 30.5 in ESE 2 mph 10 mph 70% 0 in 0 W/m2
02:23 21.9 °F 13.6 °F 30.5 in ENE 6.9 mph 7 mph 70% 0 in 0 W/m2
Juneau County Weather
Compliments of Weather Underground - 4 mb